Temperature
22 21 20 20 19 19 19 19 19 19 18 18 18 18 18 17 17 17 17 17 17 17 17 17 17 17 17 17 17 17 17 17 17 17 18 18 17 17 17 17 17 17 17
22 21 20 20 19 19 19 19 19 18 18 18 18 18 17 17 17 17 17 17 17 17 17 17 17 17 17 17 17 17 17 17 17 17 18 18 18 17 17 17 17 17 17
23 21 20 20 19 19 19 19 19 18 18 18 18 17 17 17 17 17 17 17 17 17 17 17 17 17 17 17 17 17 17 17 17 17 17 18 19 18 17 17 17 17 17
23 22 21 20 20 20 19 19 19 19 18 18 18 17 17 17 17 17 17 17 17 17 17 17 17 17 17 17 17 17 17 17 17 17 17 17 17 18 18 18 17 17 16
23 22 21 21 20 20 19 19 19 19 18 18 18 17 17 17 17 17 17 17 17 17 17 17 17 16 17 17 16 16 17 17 17 17 17 17 17 17 18 18 17 17 17
23 22 22 21 20 20 19 19 19 19 18 18 18 17 17 17 17 17 17 17 17 17 17 17 16 16 16 16 16 16 16 16 17 16 17 17 17 17 17 17 17 17 17
23 23 22 21 20 20 19 19 19 18 18 18 18 17 17 17 17 17 17 17 17 17 17 16 16 16 16 16 16 16 16 16 16 16 16 16 16 17 17 17 17 17 17
24 23 22 21 20 19 19 19 19 18 18 18 18 17 17 17 17 17 17 16 16 16 16 16 16 16 16 16 16 16 16 16 16 16 16 16 16 16 16 16 16 17 17
24 23 22 21 20 19 19 19 18 18 18 18 18 17 17 17 17 16 16 16 16 16 16 16 16 16 16 16 16 16 16 16 16 16 16 16 16 16 16 16 16 16 16
24 23 22 21 20 20 19 18 18 18 18 18 17 17 17 17 17 16 16 16 16 16 16 16 16 16 16 16 16 16 16 16 16 16 16 16 16 16 16 16 16 16 16
23 23 22 21 21 20 19 18 18 18 17 17 17 17 17 17 17 16 16 16 16 16 16 16 16 16 16 16 16 15 15 15 15 15 15 15 15 15 15 15 15 15 15
23 22 21 21 20 20 19 18 18 18 18 17 17 17 17 16 16 16 16 16 16 16 16 16 15 15 15 15 15 15 15 15 15 15 15 15 15 15 15 15 15 15 15
22 22 21 20 20 19 19 18 18 18 18 17 17 16 16 16 16 16 16 16 16 16 15 15 15 15 15 15 15 15 15 15 15 15 15 15 15 14 14 14 15 15 15
21 21 20 19 19 19 18 18 18 18 17 17 17 16 16 16 16 16 16 16 15 15 15 15 15 15 15 15 15 14 14 14 14 15 14 14 14 14 14 14 14 14 14
21 20 20 19 18 18 18 18 18 18 17 17 16 16 16 16 16 15 15 15 15 15 15 15 15 15 15 15 14 14 14 14 14 14 14 14 14 14 14 14 14 14 14
21 20 19 19 18 18 17 17 17 17 17 17 16 16 16 16 16 15 15 15 15 15 15 14 14 14 14 14 14 14 14 14 14 14 14 14 14 14 14 14 14 14 14
21 20 19 19 18 18 18 17 17 17 17 16 16 16 16 16 16 15 15 15 15 15 15 14 14 14 14 14 14 14 14 14 13 13 13 13 14 14 14 14 14 14 14
21 20 19 19 18 18 18 17 17 17 16 16 16 16 16 15 15 15 15 15 15 15 15 14 14 14 14 14 14 14 13 13 13 13 13 13 13 13 13 13 13 13 13
20 19 19 19 18 18 17 17 17 16 16 16 16 16 15 15 15 15 15 15 14 14 14 14 14 14 13 14 13 13 13 13 13 13 13 13 13 13 13 13 13 13 13
19 19 19 18 18 17 17 17 17 16 16 16 16 15 15 15 15 15 14 14 14 14 14 14 14 13 13 13 13 13 13 13 13 13 13 13 13 13 13 13 13 13 13
19 18 18 18 17 17 17 16 16 16 16 16 15 15 15 15 14 14 14 14 14 14 14 13 13 13 13 13 13 13 13 13 13 13 13 13 13 13 13 13 12 13 13
18 18 18 17 17 17 17 16 16 16 16 15 15 15 15 14 14 14 14 14 13 13 14 13 13 13 13 13 13 13 13 13 12 13 13 12 13 13 13 12 12 12 12
17 17 17 17 17 17 16 16 16 15 15 15 15 15 14 14 14 14 14 13 13 13 14 14 14 13 13 13 13 13 13 13 12 12 12 12 12 12 12 12 12 12 12
17 17 16 16 16 16 16 16 15 15 15 15 15 14 14 14 14 13 13 13 13 13 13 13 13 13 13 13 13 13 12 12 12 12 12 12 12 12 12 12 12 12 12
16 16 16 16 16 16 16 16 15 15 14 14 14 14 14 14 13 13 13 13 13 13 13 13 13 13 13 13 13 12 12 12 12 12 12 12 12 12 12 12 12 11 12
16 16 16 16 15 15 15 15 15 15 14 14 14 14 14 13 13 13 13 13 13 13 13 13 13 12 12 12 12 12 12 12 12 11 11 11 11 11 11 12 12 12 12
Wind_Speed
8 8 8 7 7 6 6 6 6 5 5 4 4 3 3 2 2 2 2 2 2 2 3 2 1 2 1 1 1 2 2 2 1 2 1 1 1 1 1 0 0 1 0
8 8 8 8 7 7 6 6 6 6 6 4 4 3 2 2 2 2 2 3 3 3 3 2 2 1 1 2 2 2 2 1 1 2 2 2 3 2 1 1 1 0 0
9 9 9 9 8 7 7 6 6 6 6 6 4 3 3 3 3 3 3 3 3 3 2 2 3 2 3 2 2 3 3 2 2 2 2 2 1 1 2 2 1 1 1
8 9 9 9 8 8 7 7 7 6 6 6 5 5 4 3 3 2 2 3 3 3 3 3 3 3 3 2 4 3 3 3 3 2 2 3 3 2 1 2 2 1 1
9 8 8 8 8 7 7 7 7 7 6 6 6 5 5 3 3 3 2 3 2 3 3 3 3 4 3 3 3 3 4 3 3 3 2 2 3 4 3 2 1 1 1
8 8 8 7 7 7 7 7 7 7 7 7 6 6 5 4 3 3 3 3 3 2 2 3 3 4 3 3 4 4 4 4 3 3 3 3 3 3 3 3 3 2 1
8 8 7 7 7 8 8 8 8 7 7 7 6 6 5 5 4 4 4 4 3 3 2 2 3 3 3 4 4 4 4 4 4 4 4 3 3 3 3 4 3 3 3
8 7 7 7 7 8 8 8 8 8 7 7 6 5 5 4 4 4 4 4 3 3 2 3 3 3 3 3 3 4 4 4 4 4 4 4 3 3 3 4 4 4 3
7 6 7 7 7 8 8 8 8 7 7 7 6 5 5 4 4 4 5 4 4 3 3 3 3 3 3 3 4 3 4 4 5 4 5 4 3 4 4 4 4 4 5
6 6 6 7 7 8 8 8 7 7 7 6 6 5 5 5 4 4 3 3 3 3 3 3 3 3 3 3 3 4 3 4 4 4 4 4 4 3 4 4 5 5 5
5 6 6 6 7 8 8 8 8 7 7 6 6 5 5 5 5 5 4 4 3 3 3 4 4 3 3 3 3 4 3 4 5 5 5 5 4 4 3 4 5 4 4
4 5 6 6 6 6 7 7 7 7 7 6 6 6 5 5 6 5 5 5 4 4 4 4 4 4 4 3 3 4 4 5 5 5 5 5 4 4 4 4 5 4 4
3 4 5 5 6 5 5 6 7 7 6 6 6 6 6 6 6 5 5 5 5 5 5 4 4 4 4 4 4 4 5 5 5 5 5 6 5 5 5 5 5 5 5
3 4 4 5 5 5 5 5 5 5 6 6 6 6 5 5 5 5 5 5 5 5 5 5 5 5 5 5 5 5 5 5 5 5 5 5 6 6 6 5 6 6 5
3 4 4 4 5 5 5 5 5 5 5 5 5 5 5 5 4 4 5 4 5 5 5 5 5 5 5 4 4 5 5 5 5 5 5 5 5 5 5 6 6 6 6
4 4 4 5 5 5 5 5 5 5 5 5 5 4 4 4 4 4 4 4 4 4 5 5 5 6 5 1 3 5 6 6 6 6 5 5 6 6 7 8 8 8 8
4 4 5 5 5 5 5 5 5 5 5 5 5 4 4 4 4 4 4 4 4 4 5 5 6 6 5 3 4 6 6 6 6 6 6 6 5 5 6 7 9 10 10
3 3 4 4 5 5 5 5 5 5 5 5 5 5 5 5 5 5 5 5 5 5 5 5 6 7 6 5 6 6 7 7 7 7 7 7 6 5 5 6 7 8 9
2 3 3 4 4 4 5 5 5 5 5 6 6 6 5 6 5 5 5 5 5 5 5 5 6 7 6 5 6 6 6 6 8 7 7 7 7 4 4 6 7 7 7
2 2 3 3 4 4 4 5 6 6 6 6 6 6 6 6 6 6 5 5 5 5 5 5 5 6 6 4 5 6 6 6 6 6 6 6 6 4 5 7 7 7 7
2 2 2 3 3 4 5 5 6 6 6 6 6 6 7 7 6 6 5 5 6 5 5 5 5 5 5 5 5 6 6 6 7 6 5 4 4 5 7 7 7 7 7
2 2 2 2 3 4 5 6 6 5 5 6 6 7 7 7 6 6 6 6 6 6 6 5 5 4 4 4 4 6 7 7 7 6 5 4 3 6 7 7 6 7 7
2 3 3 3 3 4 5 6 5 5 6 6 7 7 7 6 6 7 7 6 6 6 5 5 4 4 3 3 6 7 7 8 6 5 4 4 5 6 6 7 8 7 6
3 3 3 4 4 4 5 5 5 5 6 7 7 7 7 7 6 6 6 6 6 5 5 5 5 4 4 3 2 3 3 5 5 5 4 5 7 7 5 5 5 5 5
4 4 4 5 5 4 4 5 5 6 7 7 7 7 7 6 6 6 5 6 5 4 5 5 5 5 5 2 2 3 4 4 4 4 4 4 3 4 4 4 4 4 5
5 5 5 5 5 5 4 4 5 6 7 7 7 6 6 5 5 5 5 3 4 3 4 5 6 5 4 2 3 4 5 5 5 5 5 4 4 4 4 4 4 4 5
Wind_Direction
181 178 182 182 181 184 189 196 200 189 190 191 193 190 189 196 199 209 202 225 239 240 254 268 219 249 238 242 225 220 218 231 242 250 221 183 181 163 181 192 152 123 118
183 185 186 186 187 189 194 198 203 197 196 195 202 201 196 204 203 213 192 225 229 242 223 239 246 233 220 210 215 231 253 243 233 262 262 223 177 180 191 181 168 7 224
190 188 189 193 192 194 197 201 202 202 201 199 198 188 184 201 195 203 198 209 217 223 248 234 250 251 243 217 222 225 236 249 232 237 269 278 273 182 170 178 167 197 275
193 189 191 194 196 197 197 198 197 198 198 198 200 196 201 209 212 214 196 199 209 219 223 229 233 243 245 227 231 218 239 248 243 220 246 283 314 285 229 188 177 197 257
194 193 195 196 197 194 193 188 187 191 194 195 194 201 212 215 212 208 186 211 196 215 223 225 231 233 238 235 242 234 243 241 251 254 247 247 244 253 268 272 255 225 237
192 192 192 190 190 188 189 185 183 188 191 193 193 203 211 215 220 224 213 218 209 213 217 226 238 241 242 231 231 232 230 242 252 259 258 255 260 256 264 272 268 271 254
190 190 190 190 190 189 188 184 181 184 187 190 196 205 211 213 219 232 227 239 231 225 222 239 242 245 240 238 236 231 241 236 236 245 253 260 269 278 268 270 276 279 273
192 190 189 189 188 188 186 184 183 185 187 192 197 205 215 223 224 228 242 237 250 246 226 225 236 248 250 245 236 240 237 232 233 241 253 259 260 265 263 261 263 268 265
189 185 177 178 179 181 183 184 181 183 188 192 196 201 208 224 233 229 234 241 248 245 227 231 235 245 252 256 250 247 246 240 240 239 234 246 249 247 254 249 242 253 267
184 178 172 172 177 178 179 182 182 186 190 192 199 197 201 210 224 235 241 252 251 255 250 244 241 239 244 251 258 254 249 245 244 249 253 254 254 251 244 246 249 250 257
177 173 171 171 173 177 180 185 188 192 196 199 200 206 207 211 216 224 230 236 239 237 239 243 242 241 244 249 253 263 257 250 247 244 236 239 248 246 243 241 245 243 244
166 167 165 167 173 181 184 187 195 196 197 198 199 205 211 216 218 220 224 228 229 231 227 234 237 241 243 247 251 257 257 256 251 246 242 239 231 232 242 241 241 240 238
163 164 166 172 178 183 187 193 197 200 196 191 199 204 211 217 222 225 227 229 231 234 234 234 237 243 246 248 250 251 254 254 255 254 246 240 235 234 237 239 241 238 231
171 171 171 177 182 189 187 190 198 198 200 196 199 203 215 220 223 225 228 232 234 235 235 237 240 242 247 249 252 253 255 260 262 262 258 247 234 232 234 237 240 239 237
186 183 185 181 187 192 194 193 193 192 197 196 202 205 212 217 221 225 229 231 236 239 235 239 242 247 248 252 262 264 258 263 266 265 258 250 238 244 241 246 244 237 235
198 197 196 191 193 196 197 196 198 194 193 198 205 201 205 211 217 222 225 228 231 237 231 235 243 249 254 234 256 266 265 266 266 264 260 252 235 232 231 240 248 252 243
214 206 202 201 200 200 196 198 201 199 199 202 204 204 206 212 218 219 216 219 223 230 229 235 242 250 251 225 235 247 260 259 261 261 260 263 254 239 250 238 233 242 245
225 216 212 206 204 200 196 201 198 201 204 205 206 210 211 213 215 217 218 221 223 231 236 241 246 250 244 218 230 241 250 255 258 257 256 258 263 261 259 259 250 242 234
252 232 224 214 206 202 199 202 208 210 214 215 216 216 216 218 216 219 222 226 233 241 245 243 248 253 250 220 227 238 253 252 255 257 254 253 257 256 257 257 257 254 245
260 240 224 212 204 203 206 213 221 220 223 224 224 222 218 221 222 223 226 228 232 239 246 243 247 253 260 234 227 235 249 255 259 255 251 244 244 246 243 252 251 250 249
255 230 217 215 211 204 207 220 230 234 234 230 228 226 222 223 223 222 226 229 232 235 242 250 253 249 250 236 219 228 248 256 260 262 263 258 205 226 241 250 249 249 254
273 242 220 221 219 213 215 227 234 238 239 235 230 228 227 229 220 217 224 229 231 231 231 236 247 247 239 236 222 220 239 261 264 269 270 265 222 237 242 243 243 248 247
278 255 241 231 231 231 231 237 240 236 234 235 232 228 228 230 224 222 224 227 226 234 237 239 246 251 257 231 194 212 227 240 253 270 286 278 252 252 240 229 229 233 235
286 268 257 250 248 244 240 240 239 237 236 235 231 226 226 225 222 226 226 232 235 234 238 244 251 255 254 262 269 266 253 235 247 266 257 235 237 245 253 233 220 226 231
279 264 256 256 257 249 244 243 236 234 237 237 232 230 228 225 222 226 235 236 240 247 246 247 251 255 262 285 330 278 273 280 285 281 266 258 246 241 235 232 228 228 223
276 268 263 262 262 257 247 242 235 233 237 237 234 231 227 222 225 224 232 226 233 215 231 247 254 258 257 256 269 271 274 279 269 258 252 254 257 257 253 245 236 228 227
Height
1519 1521 1523 1524 1525 1525 1526 1527 1528 1529 1530 1531 1531 1532 1533 1534 1534 1534 1534 1534 1535 1535 1535 1537 1536 1536 1536 1536 1536 1536 1536 1537 1537 1537 1537 1537 1537 1537 1537 1537 1537 1537 1537
1517 1519 1520 1522 1522 1523 1524 1525 1526 1527 1528 1529 1530 1531 1532 1532 1533 1533 1533 1533 1534 1534 1535 1534 1535 1535 1535 1535 1535 1535 1536 1536 1536 1536 1536 1536 1537 1536 1536 1536 1535 1536 1536
1513 1516 1518 1519 1520 1521 1522 1523 1524 1525 1526 1527 1529 1529 1530 1531 1532 1532 1531 1532 1532 1533 1533 1533 1534 1534 1535 1534 1534 1534 1534 1535 1535 1535 1536 1535 1534 1535 1535 1535 1534 1534 1534
1511 1513 1515 1517 1518 1519 1520 1521 1522 1523 1524 1525 1527 1528 1529 1530 1530 1530 1530 1530 1530 1531 1531 1532 1532 1532 1533 1533 1533 1533 1533 1533 1534 1534 1534 1534 1534 1534 1534 1534 1533 1533 1533
1508 1510 1512 1514 1515 1517 1518 1518 1519 1521 1522 1523 1524 1526 1527 1528 1529 1529 1529 1529 1529 1529 1530 1530 1530 1531 1531 1531 1531 1531 1531 1532 1532 1533 1533 1533 1533 1533 1533 1533 1533 1532 1532
1505 1508 1510 1512 1513 1514 1516 1517 1517 1519 1520 1521 1522 1524 1525 1526 1527 1527 1527 1528 1528 1528 1528 1528 1528 1529 1530 1529 1529 1529 1530 1530 1530 1530 1531 1531 1531 1531 1531 1531 1531 1531 1531
1503 1505 1507 1509 1510 1512 1513 1515 1516 1517 1518 1519 1521 1522 1523 1524 1525 1525 1526 1526 1526 1526 1526 1526 1526 1527 1527 1527 1527 1527 1528 1528 1528 1528 1529 1529 1529 1529 1530 1529 1529 1529 1529
1500 1502 1504 1506 1508 1509 1511 1513 1514 1515 1516 1517 1518 1520 1521 1523 1523 1523 1524 1524 1524 1524 1524 1524 1524 1524 1525 1525 1525 1526 1526 1526 1526 1526 1526 1526 1527 1527 1527 1528 1528 1527 1527
1498 1500 1502 1504 1506 1507 1509 1510 1511 1513 1514 1516 1517 1518 1519 1520 1521 1521 1521 1522 1521 1522 1522 1522 1522 1522 1522 1522 1523 1523 1523 1523 1523 1524 1524 1524 1524 1524 1524 1525 1525 1526 1525
1496 1498 1500 1502 1504 1505 1507 1508 1509 1511 1512 1514 1515 1516 1516 1517 1518 1519 1519 1519 1519 1519 1519 1520 1520 1520 1520 1520 1520 1521 1520 1520 1520 1520 1520 1520 1521 1521 1522 1522 1522 1523 1523
1494 1496 1498 1500 1502 1504 1505 1507 1508 1509 1510 1511 1512 1513 1514 1515 1515 1516 1516 1516 1516 1517 1517 1517 1517 1517 1517 1517 1517 1518 1517 1517 1517 1517 1517 1517 1517 1518 1518 1519 1519 1520 1520
1493 1495 1497 1498 1500 1502 1503 1504 1505 1507 1507 1508 1509 1510 1511 1512 1513 1513 1513 1513 1513 1514 1514 1514 1515 1515 1515 1515 1514 1514 1514 1514 1514 1514 1514 1514 1514 1514 1515 1515 1516 1516 1516
1492 1494 1495 1496 1498 1499 1501 1502 1503 1504 1505 1506 1507 1508 1508 1509 1509 1510 1510 1510 1510 1511 1512 1512 1512 1512 1512 1512 1511 1511 1511 1511 1510 1510 1510 1510 1510 1510 1511 1511 1512 1513 1513
1491 1492 1494 1495 1496 1497 1498 1499 1501 1502 1503 1503 1504 1504 1505 1506 1506 1507 1507 1508 1508 1508 1509 1509 1509 1509 1509 1509 1508 1508 1508 1507 1507 1507 1506 1506 1506 1507 1507 1508 1508 1509 1510
1490 1491 1492 1493 1494 1495 1496 1497 1498 1499 1500 1500 1501 1501 1502 1503 1503 1504 1504 1505 1505 1506 1506 1506 1506 1506 1506 1506 1506 1505 1505 1504 1504 1503 1503 1503 1503 1503 1504 1504 1505 1505 1506
1488 1489 1490 1491 1492 1492 1493 1494 1495 1496 1497 1497 1498 1499 1499 1500 1500 1501 1501 1502 1502 1502 1503 1503 1503 1503 1503 1503 1502 1502 1501 1501 1500 1500 1500 1500 1499 1499 1499 1500 1500 1501 1502
1486 1487 1488 1488 1489 1490 1491 1491 1492 1493 1494 1495 1496 1496 1496 1497 1498 1498 1498 1498 1498 1499 1499 1499 1499 1499 1499 1499 1499 1498 1498 1498 1497 1497 1496 1497 1497 1496 1496 1496 1496 1497 1497
1484 1485 1486 1486 1487 1488 1489 1489 1490 1490 1491 1492 1493 1493 1493 1494 1495 1495 1495 1495 1495 1495 1495 1495 1495 1495 1496 1495 1495 1495 1494 1494 1494 1493 1493 1493 1492 1492 1492 1492 1492 1492 1492
1482 1483 1483 1484 1485 1485 1486 1487 1487 1488 1488 1489 1489 1490 1490 1491 1491 1491 1491 1491 1491 1491 1491 1492 1492 1491 1492 1492 1492 1491 1491 1491 1490 1490 1490 1489 1489 1488 1488 1488 1488 1488 1488
1480 1480 1481 1482 1482 1483 1483 1484 1485 1485 1486 1486 1486 1487 1487 1487 1487 1487 1487 1488 1488 1488 1488 1488 1488 1488 1488 1488 1488 1488 1488 1487 1486 1486 1486 1485 1485 1484 1484 1484 1484 1483 1484
1477 1478 1478 1479 1480 1480 1481 1481 1482 1482 1483 1483 1483 1483 1483 1483 1484 1484 1484 1484 1484 1484 1485 1485 1485 1484 1485 1485 1484 1484 1484 1483 1483 1482 1482 1482 1481 1480 1480 1480 1480 1479 1480
1475 1476 1476 1476 1477 1477 1478 1478 1478 1479 1479 1479 1480 1480 1480 1480 1481 1480 1480 1481 1481 1481 1481 1481 1481 1481 1481 1481 1481 1480 1480 1480 1479 1478 1478 1477 1477 1476 1475 1475 1475 1475 1476
1473 1473 1474 1474 1474 1474 1475 1475 1475 1475 1475 1475 1475 1475 1475 1476 1476 1476 1477 1477 1477 1478 1478 1478 1478 1478 1478 1478 1477 1477 1477 1476 1475 1475 1474 1473 1472 1471 1471 1471 1471 1472 1472
1471 1471 1471 1471 1471 1471 1471 1471 1471 1471 1471 1471 1471 1471 1471 1471 1472 1472 1472 1474 1474 1474 1474 1475 1475 1475 1475 1475 1474 1474 1473 1472 1471 1471 1470 1469 1468 1468 1467 1467 1468 1468 1468
1468 1468 1468 1468 1468 1468 1467 1467 1467 1467 1467 1467 1467 1467 1467 1468 1468 1468 1468 1469 1469 1470 1471 1471 1472 1471 1471 1471 1470 1469 1469 1468 1468 1467 1466 1466 1465 1465 1465 1465 1465 1465 1466
1465 1465 1465 1465 1464 1464 1463 1463 1463 1463 1463 1462 1462 1463 1464 1464 1464 1464 1465 1464 1465 1465 1466 1466 1467 1467 1467 1467 1466 1466 1465 1465 1464 1464 1463 1463 1463 1462 1462 1462 1462 1462 1462